Find Starlink 1526

NORAD ID: 46029 Int'l Des: 2020-055 Owner: SPXS Country: US Constellation: starlink operational
LEOCIRCULARSTARLINK_TYPE

实时位置

正在加载3D地球...

关于 Starlink 1526

正在加载描述...

即将过境

Passes for default location (London). Set your location on the main map for personalized predictions.

高度历史

Loading altitude history...

两行轨道根数

1 46029U 20055C 26126.64607529 .00006666 00000-0 23689-3 0 9994
2 46029 53.1603 217.5120 0001462 78.6931 281.4234 15.30214381317762
Epoch: May 6, 2026 • Age: 16 hours

当前状态

高度 476.5 km
速度 7.63 km/s
星下点 32.73°N, 92.58°W
发射日期 Aug 7, 2020
运行时间 5.7 years
类型 internet

技术详情

分类 Payload
质量 260.00 kg
干质量 248.00 kg
总质量 260.00 kg
长度 0.20 m
直径 2.80 m
跨度 9.00 m
形状 Box + pan
制造商 SPXS
平台类型 Starlink
阶段状态 In Orbit
所有者/国家 SPXS/US

Most Searched